This demonstration page uses our WeatherBlox Daily Observations layout. Learn more.

Left ArrowRight Arrow

34.02893, -84.19858

Hourly Observations for June 5, 2020

Temp ( °F °C ) Dew Point ( °F °C ) Humidity (%) Winds ( mph kmh ) Pressure ( in mb ) Visibility ( mi km ) Precip ( " mm )
12:53 am 00:53 Clear 71 21.7 70 21.1 96 96 Calm 29.92 1013 9 14 0.00 0.00
1:53 am 01:53 Mostly Cloudy 71 21.7 70 21.1 96 96 Calm 29.91 1013 10 16 0.00 0.00
2:53 am 02:53 Cloudy 71 21.7 70 21.1 96 96 Calm 29.91 1013 9 14 0.00 0.00
3:53 am 03:53 Partly Cloudy with Mist and Fog 70 21.1 69 20.6 97 97 Calm 29.90 1013 6 10 0.00 0.00
4:53 am 04:53 Clear 69 20.6 67 19.4 93 93 SSW 7 11 29.90 1013 10 16 0.00 0.00
5:53 am 05:53 Clear 69 20.6 67 19.4 93 93 SW 3 6 29.91 1013 10 16 0.00 0.00
6:53 am 06:53 Sunny 69 20.6 67 19.4 93 93 SSW 5 7 29.93 1014 10 16 0.00 0.00
7:53 am 07:53 Sunny 72 22.2 69 20.6 91 91 S 5 7 29.95 1014 10 16 0.00 0.00
8:53 am 08:53 Partly Cloudy 75 23.9 70 21.1 84 84 WSW 3 6 29.97 1015 10 16 0.00 0.00
9:53 am 09:53 Sunny 78 25.6 70 21.1 76 76 WSW 6 9 29.96 1015 10 16 0.00 0.00
10:19 am 10:19 Mostly Cloudy 79 26.1 71 21.7 77 77 SW 8 13 29.97 1015 10 16 0.00 0.00
10:37 am 10:37 Cloudy with Nearby Thunderstorms 78 25.6 70 21.1 76 76 Calm 29.97 1015 10 16 0.00 0.00
10:53 am 10:53 Cloudy with Thunderstorms 71 21.7 66 18.9 84 84 NNW 9 15 30.01 1016 4 6 0.02 0.51
10:56 am 10:56 Cloudy with Thunderstorms 70 21.1 66 18.9 87 87 W 12 19 30.02 1017 1 2 0.10 2.54
10:58 am 10:58 Cloudy with Thunderstorms 69 20.6 67 19.4 93 93 VRB 7 11 30.02 1017 1 1 0.19 4.83
11:13 am 11:13 Cloudy with Strong Thunderstorms 68 20 67 19.4 96 96 ESE 3 6 30.02 1017 1 2 0.52 13.21
11:21 am 11:21 Cloudy with Thunderstorms 68 20 68 20 100 100 Calm 30.01 1016 2 3 0.56 14.22
11:26 am 11:26 Cloudy with Thunderstorms 68 20 68 20 100 100 Calm 30.01 1016 3 5 0.57 14.48
11:43 am 11:43 Cloudy 69 20.6 68 20 96 96 Calm 30.01 1016 7 11 0.57 14.48
11:53 am 11:53 Mostly Cloudy with Light Rain 69 20.6 69 20.6 100 100 Calm 30.00 1016 6 10 0.57 14.48
12:53 pm 12:53 Sunny 76 24.4 72 22.2 88 88 VRB 5 7 29.97 1015 10 16 0.00 0.00
1:41 pm 13:41 Mostly Cloudy 78 25.6 72 22.2 82 82 SSW 3 6 29.96 1015 10 16 0.00 0.00
1:53 pm 13:53 Partly Cloudy 78 25.6 73 22.8 85 85 S 5 7 29.95 1014 10 16 0.00 0.00
2:53 pm 14:53 Mostly Cloudy 79 26.1 73 22.8 82 82 WSW 8 13 29.93 1014 10 16 0.00 0.00
3:09 pm 15:09 Partly Cloudy 78 25.6 73 22.8 85 85 SW 7 11 29.93 1014 10 16 0.00 0.00
3:53 pm 15:53 Mostly Sunny 76 24.4 72 22.2 88 88 SW 10 17 29.92 1013 10 16 0.00 0.00
4:53 pm 16:53 Sunny 79 26.1 71 21.7 77 77 S 7 11 29.91 1013 10 16 0.00 0.00
5:53 pm 17:53 Sunny 77 25 71 21.7 82 82 S 9 15 29.89 1012 10 16 0.00 0.00
6:53 pm 18:53 Sunny 77 25 69 20.6 77 77 WSW 8 13 29.91 1013 10 16 0.00 0.00
7:53 pm 19:53 Sunny 76 24.4 69 20.6 79 79 SW 7 11 29.93 1013 10 16 0.00 0.00
8:53 pm 20:53 Clear 73 22.8 69 20.6 87 87 SW 6 9 29.93 1014 10 16 0.00 0.00
9:53 pm 21:53 Clear 71 21.7 69 20.6 94 94 S 6 9 29.93 1014 10 16 0.00 0.00
10:53 pm 22:53 Clear 70 21.1 69 20.6 97 97 S 5 7 29.97 1015 10 16 0.00 0.00
11:53 pm 23:53 Clear 71 21.7 69 20.6 94 94 SW 5 7 29.98 1015 10 16 0.00 0.00

Powered by AerisWeather